Location: Asheville, NC
(35.6000°N, 82.5500°W)
Time: 00:04:54
(UTC-04:00)

Envisat - Pass Details

Date: 09 October 2017
Orbit: 764 x 766 km, 98.2° (Epoch: 22 October)

Event Time Altitude Azimuth Distance (km) Brightness Sun altitude
Exits shadow 21:44:40 33° 325° (NW) 1,257 4.4 -33.5°
Drops below altitude 10° 21:47:34 10° 339° (NNW) 2,304 5.9 -34.1°
Sets 21:49:55 0° 344° (NNW) 3,234 6.7 -34.5°
